Date,TemperatureHighF,TemperatureAvgF,TemperatureLowF,DewpointHighF,DewpointAvgF,DewpointLowF,HumidityHigh,HumidityAvg,HumidityLow,PressureMaxIn,PressureMinIn,WindSpeedMaxMPH,WindSpeedAvgMPH,GustSpeedMaxMPH,PrecipitationSumIn
2013-1-1,27.4,20.4,9.2,21.8,12.9,5.4,91,73,57,30.18,30.05,16,3,16,0.00
2013-1-2,24.7,21.3,15.1,20.3,16.4,10.9,86,81,74,30.22,30.10,15,3,15,0.00
2013-1-3,28.2,22.6,14.6,25.5,18.4,8.5,90,83,73,30.19,30.08,18,6,18,0.00
2013-1-4,30.4,26.5,23.2,24.5,21.1,19.1,88,80,69,30.21,30.02,26,10,26,0.00
2013-1-5,33.7,25.1,13.5,30.1,22.0,11.5,94,88,73,30.31,30.06,18,4,18,0.00
2013-1-6,34.7,32.9,31.1,32.3,29.6,26.0,94,88,81,30.28,29.92,16,6,17,0.01
2013-1-7,35.4,30.6,27.4,26.2,24.3,21.9,84,77,66,30.38,30.16,26,8,27,0.00
2013-1-8,36.2,29.6,21.7,28.2,24.7,19.3,92,82,71,30.26,30.17,13,5,13,0.00
2013-1-9,45.5,37.6,30.6,34.3,29.1,23.8,89,73,43,30.44,30.04,32,9,33,0.00
2013-1-10,42.4,31.6,20.3,32.5,26.3,18.9,96,82,57,30.59,30.18,17,3,20,0.08
2013-1-11,55.3,43.8,34.7,51.7,41.9,32.3,98,93,80,30.18,29.76,18,6,21,0.72
2013-1-12,60.7,49.7,44.8,50.6,45.6,42.3,97,87,58,29.93,29.81,18,4,18,0.01
2013-1-13,46.0,36.3,28.0,42.7,35.0,25.4,97,95,85,30.06,29.73,23,4,23,0.65
2013-1-14,27.9,21.9,14.3,25.5,17.6,12.4,94,83,75,30.46,30.05,16,5,23,0.00
2013-1-15,29.5,20.4,10.9,22.1,15.6,9.0,94,83,61,30.47,30.18,7,1,8,0.00
2013-1-16,36.7,26.9,17.0,28.5,18.9,14.2,95,74,42,30.19,29.82,23,6,25,0.00
2013-1-19,46.4,43.4,38.2,36.0,32.7,28.2,76,66,58,29.95,29.56,35,13,37,0.00
2013-1-20,43.3,21.0,14.2,35.0,10.2,4.2,73,63,44,30.21,29.55,42,12,45,0.00
2013-1-21,14.3,11.1,2.5,10.2,4.1,-5.0,88,73,54,30.18,30.00,25,5,25,0.00
2013-1-22,8.6,3.0,-2.8,2.5,-4.4,-11.9,85,71,57,30.35,30.17,19,5,22,0.00
2013-1-23,17.1,9.3,1.1,9.7,4.0,-2.6,88,79,67,30.35,30.13,18,4,18,0.00
2013-1-24,17.2,10.8,5.9,10.6,3.5,-2.3,89,73,44,30.64,30.17,14,3,14,0.00
2013-1-25,20.6,16.0,11.0,16.2,11.1,3.2,91,81,70,30.56,30.05,13,3,15,0.00
2013-1-26,25.9,20.1,12.6,19.0,15.2,10.0,94,82,60,30.49,30.09,13,2,16,0.00
2013-1-27,29.2,20.0,9.1,27.2,15.3,6.0,94,82,62,30.51,30.16,19,4,21,0.00
2013-1-28,45.6,36.4,29.2,45.1,35.6,27.4,100,97,92,30.18,29.88,14,5,18,0.33
2013-1-29,56.9,45.4,33.5,55.2,44.9,32.2,99,98,94,30.03,29.45,21,7,24,1.24
2013-1-30,58.6,48.8,30.8,56.8,47.4,26.5,99,95,86,29.45,29.09,27,8,30,0.69
2013-1-31,30.5,20.8,14.7,26.5,15.7,11.3,92,81,64,29.91,29.24,32,11,34,0.00
2013-2-1,17.5,13.2,7.9,11.7,7.8,1.7,89,79,64,30.31,29.91,19,8,21,0.00
2013-2-2,21.5,14.4,3.2,17.8,10.5,0.2,90,84,77,30.26,29.99,16,5,18,0.00
2013-2-3,20.0,10.4,-4.2,16.5,6.4,-6.9,91,84,69,30.06,29.90,17,3,21,0.00
2013-2-4,23.2,18.2,14.9,19.0,14.6,8.8,90,86,74,30.08,29.91,8,2,8,0.00
2013-2-5,27.1,18.9,1.6,25.6,15.7,-0.6,94,87,69,30.00,29.84,15,4,17,0.00
2013-2-6,33.7,22.6,7.3,23.2,15.7,4.9,94,76,50,30.33,30.00,17,3,17,0.00
2013-2-7,37.7,29.4,24.1,28.7,22.8,16.7,93,76,69,30.32,29.89,20,6,20,0.00
2013-2-8,27.9,23.9,9.8,26.9,21.2,7.9,100,90,72,30.38,29.82,25,6,29,0.00
2013-2-9,32.2,18.1,-0.3,21.8,12.4,-3.0,94,80,52,30.48,30.32,13,3,14,0.01
2013-2-10,38.4,30.3,20.2,36.4,25.5,18.5,94,83,63,30.32,29.71,19,6,22,0.15
2013-2-11,43.8,36.7,31.0,42.6,31.5,26.0,97,82,70,29.87,29.55,35,13,37,0.06
2013-2-12,31.0,29.5,26.7,26.4,24.0,21.5,83,80,76,30.06,29.86,22,6,24,0.00
2013-2-13,39.3,29.7,25.1,27.0,23.3,20.8,86,78,59,29.95,29.74,12,4,13,0.00
2013-2-14,37.9,36.0,32.7,34.5,31.9,27.9,88,85,80,29.86,29.68,27,11,30,0.01
2013-2-15,32.7,26.0,20.6,28.4,17.5,13.0,84,70,57,30.14,29.86,19,6,24,0.00
2013-2-16,23.8,18.4,13.7,18.6,13.9,9.9,92,83,60,30.13,30.00,14,2,14,0.00
2013-2-17,22.8,14.7,7.3,13.3,7.0,3.7,90,72,49,30.25,30.09,19,3,20,0.00
2013-2-18,46.3,30.3,15.1,38.0,21.0,7.1,80,68,56,30.25,29.62,23,7,24,0.00
2013-2-19,45.5,27.8,16.5,40.3,23.7,11.1,94,84,72,29.94,29.42,28,12,30,0.23
2013-2-20,18.0,15.8,14.5,12.7,10.4,8.3,87,79,70,30.12,29.94,20,9,23,0.00
2013-2-21,24.8,21.2,18.6,17.5,14.8,12.7,87,76,67,30.42,30.30,17,5,17,0.00
2013-2-22,32.4,26.2,20.8,31.6,24.1,17.5,97,92,84,30.30,29.91,21,7,26,0.00
2013-2-23,32.2,29.0,22.6,30.4,23.4,19.5,93,80,66,29.94,29.88,17,7,20,0.00
2013-2-24,35.1,26.8,19.5,26.3,21.8,16.9,93,82,63,30.18,29.91,16,4,18,0.00
2013-2-25,40.4,28.7,11.0,34.4,21.1,9.0,95,75,53,30.26,30.12,10,2,11,0.00
2013-2-26,34.3,31.4,27.7,32.2,26.6,21.2,97,82,71,30.15,29.52,25,9,32,0.16
2013-2-27,34.7,33.4,32.7,33.6,32.5,31.9,98,96,93,29.58,29.46,23,4,24,0.31
2013-2-28,34.5,32.0,28.3,32.8,29.9,24.5,98,92,84,29.99,29.55,24,7,24,0.07
2013-3-1,28.3,25.1,23.5,24.8,21.2,19.4,89,85,82,30.14,29.98,19,7,20,0.00
2013-3-2,24.4,23.0,20.9,20.2,19.0,16.9,88,84,81,30.12,30.08,14,4,14,0.00
2013-3-3,26.7,20.4,13.4,17.3,15.0,11.0,93,80,65,30.10,30.03,18,3,18,0.00
2013-3-4,36.1,22.1,10.5,19.4,14.5,7.9,93,74,41,30.18,30.09,9,1,10,0.00
2013-3-5,35.6,26.5,15.7,24.9,20.4,12.9,91,78,60,30.17,29.86,20,7,22,0.00
2013-3-6,37.4,31.6,25.4,29.7,27.0,22.4,89,83,71,30.23,29.89,12,4,17,0.00
2013-3-7,33.2,30.5,21.7,29.8,25.5,17.8,93,82,64,30.42,30.22,14,2,15,0.00
2013-3-8,45.9,29.8,17.5,28.4,22.6,15.6,93,77,48,30.53,30.42,10,1,10,0.00
2013-3-9,42.7,35.3,25.5,32.3,28.6,23.2,94,77,58,30.44,30.05,16,5,16,0.00
2013-3-10,60.0,50.4,38.3,46.2,38.4,32.0,79,64,53,30.05,29.78,23,6,23,0.00
2013-3-11,56.6,48.7,36.2,48.9,44.0,33.0,98,85,54,29.81,29.44,27,10,30,0.61
2013-3-12,37.1,33.9,32.3,33.2,30.0,26.9,91,85,77,29.87,29.64,21,9,24,0.00
2013-3-13,30.8,27.6,25.8,17.4,16.1,14.2,63,61,57,30.20,30.11,20,7,23,0.00
2013-3-14,39.2,29.6,20.3,21.9,18.2,14.0,83,63,45,30.27,30.10,12,4,17,0.00
2013-3-15,37.1,33.5,29.8,33.2,28.8,17.2,96,83,55,30.11,29.85,15,4,17,0.04
2013-3-16,32.9,28.0,23.6,31.9,25.4,19.9,96,90,76,30.05,29.78,14,4,17,0.00
2013-3-17,30.6,24.9,16.9,24.1,16.0,11.8,90,70,51,30.29,30.04,17,6,17,0.00
2013-3-18,34.2,28.4,20.3,33.1,25.2,14.0,97,88,77,30.25,29.57,23,8,25,0.00
2013-3-19,33.8,25.4,22.0,31.2,20.2,14.9,93,80,71,29.96,29.63,30,11,30,0.00
2013-3-20,26.5,22.8,16.2,18.4,15.2,11.2,83,72,62,29.97,29.91,20,7,23,0.00
2013-3-21,29.8,23.0,14.5,24.5,18.6,11.3,90,83,74,29.97,29.88,18,6,18,0.00
2013-3-22,37.5,29.4,24.7,24.0,20.8,17.4,81,70,55,30.05,29.96,17,5,18,0.00
2013-3-23,34.4,27.8,19.2,25.3,22.3,17.4,94,80,66,30.13,30.04,8,2,10,0.00
2013-3-24,35.9,28.1,19.6,27.8,23.0,17.9,94,82,58,30.10,29.68,24,7,26,0.00
2013-3-25,38.6,33.5,30.1,29.7,26.6,24.2,82,76,62,29.94,29.60,23,8,26,0.00
2013-3-26,40.7,35.4,31.8,32.2,29.2,26.9,89,78,62,30.13,29.92,14,4,17,0.00
2013-3-27,45.4,36.9,28.9,30.5,26.9,24.5,88,68,47,30.22,30.12,21,6,22,0.00
2013-3-28,49.9,39.1,29.2,28.7,25.9,23.4,84,61,40,30.27,30.21,19,4,19,0.00
2013-3-29,50.9,38.8,27.3,26.8,23.1,20.4,78,56,31,30.29,30.20,15,2,18,0.00
2013-3-30,54.6,40.2,20.9,31.5,23.4,16.2,92,57,23,30.23,29.93,17,4,19,0.00
2013-3-31,55.7,45.6,39.6,42.5,34.6,30.5,89,66,45,29.95,29.61,21,6,21,0.00
2013-4-1,43.2,30.6,25.5,32.5,18.0,11.6,89,60,40,30.11,29.67,23,7,24,0.00
2013-4-2,38.9,29.8,21.5,20.2,15.6,11.8,90,58,35,30.27,30.11,24,6,24,0.00
2013-4-3,42.5,30.4,22.0,16.7,14.6,11.2,74,53,31,30.45,30.27,19,3,20,0.00
2013-4-4,55.4,40.9,27.2,21.4,17.7,14.7,65,42,21,30.39,29.96,19,5,19,0.00
2013-4-5,46.2,39.4,32.3,31.5,22.7,17.1,83,53,34,30.21,29.94,19,4,21,0.00
2013-4-6,49.0,39.1,29.8,28.1,23.0,16.2,78,54,36,30.24,29.78,20,7,27,0.00
2013-4-7,56.8,48.2,34.5,46.8,36.9,27.1,86,66,41,30.03,29.60,26,8,31,0.01
2013-4-8,64.5,44.9,32.3,55.1,40.0,29.1,94,84,58,30.03,29.69,32,6,35,0.20
2013-4-9,51.0,45.1,39.9,46.0,42.6,38.8,97,91,80,30.09,29.88,17,5,17,0.89
2013-4-10,44.0,40.5,37.2,43.4,39.7,36.7,98,97,95,30.05,29.80,21,6,24,0.35
2013-4-11,37.9,36.6,35.5,37.3,35.7,34.4,98,97,94,30.00,29.65,25,9,28,1.14
2013-4-12,41.1,37.5,33.9,40.3,35.4,32.9,99,93,77,29.77,29.55,21,6,21,0.43
2013-4-13,41.2,37.3,34.9,37.7,31.3,27.8,95,79,63,30.00,29.77,23,9,26,0.00
2013-4-14,47.2,38.8,30.3,38.9,32.7,27.1,91,78,67,30.13,29.94,21,4,21,0.02
2013-4-15,67.1,54.4,40.5,55.5,46.3,34.6,92,75,62,29.95,29.86,22,7,26,0.03
2013-4-16,61.1,51.9,44.9,55.0,42.7,34.2,95,73,43,30.22,29.85,18,5,19,0.00
2013-4-17,57.4,46.4,38.4,43.5,36.2,31.0,93,69,44,30.33,30.00,21,7,26,1.00
2013-4-18,75.8,57.7,43.5,65.3,54.6,41.3,97,90,69,30.02,29.52,43,9,43,0.71
2013-4-19,58.4,43.9,31.9,57.6,39.1,29.5,97,83,66,29.76,29.30,37,12,39,0.89
2013-4-20,38.6,32.6,25.7,30.0,22.3,16.2,93,66,52,30.47,29.75,22,7,28,0.00
2013-4-21,47.4,35.5,21.0,29.1,24.2,19.3,95,66,43,30.65,30.47,17,4,20,0.00
2013-4-22,60.6,46.6,31.8,35.1,28.3,15.5,89,54,18,30.49,30.19,15,4,17,0.00
2013-4-23,61.3,48.0,44.5,40.9,36.0,33.3,73,63,46,30.20,30.02,16,4,16,0.00
2013-4-24,34.2,33.7,33.4,33.4,32.8,32.3,97,96,96,29.86,29.83,12,6,17,0.43
2013-4-25,49.7,43.7,34.0,38.9,32.7,27.3,91,66,46,30.36,30.11,22,7,24,0.05
2013-4-26,58.1,44.1,27.1,38.7,31.7,25.6,95,66,40,30.46,30.33,21,5,24,0.00
2013-4-27,68.3,53.9,34.9,42.0,36.7,30.9,93,58,26,30.37,30.10,16,4,16,0.00
2013-4-28,58.8,53.1,48.8,52.7,45.2,34.9,98,77,50,30.10,29.82,14,3,16,0.40
2013-4-29,69.5,59.5,52.2,55.8,53.3,51.7,99,82,57,29.93,29.83,12,2,12,0.01
2013-4-30,72.4,61.6,54.3,60.2,54.9,52.0,97,80,57,30.04,29.91,24,6,25,0.30
2013-5-1,79.8,68.3,56.6,58.0,54.8,52.9,88,65,41,30.20,30.04,18,4,19,0.00
2013-5-2,76.7,67.2,57.2,57.2,51.0,46.0,80,58,38,30.21,30.10,20,5,20,0.00
2013-5-3,75.7,67.1,58.6,57.5,44.5,31.5,58,46,21,30.10,30.02,21,6,24,0.00
2013-5-4,68.5,62.9,56.9,47.8,42.8,35.3,69,49,31,30.09,30.03,21,6,22,0.00
2013-5-5,70.4,61.6,52.0,45.3,38.6,28.6,69,45,22,30.09,30.01,21,5,22,0.00
2013-5-6,73.0,57.5,42.2,48.6,42.0,38.4,91,58,38,30.05,29.96,13,3,14,0.00
2013-5-7,74.3,61.8,46.1,54.7,48.1,40.5,93,64,36,30.05,29.97,19,4,22,0.00
2013-5-8,78.3,62.2,49.0,50.5,47.8,45.1,95,65,32,30.01,29.90,14,2,14,0.00
2013-5-9,77.7,76.1,74.2,54.9,51.2,48.7,51,42,38,29.94,29.93,8,2,9,0.00
2013-5-10,54.3,45.2,41.1,52.6,42.8,39.3,95,91,89,29.86,29.75,18,6,19,0.35
2013-5-11,59.2,45.7,41.1,46.5,42.3,39.9,97,89,57,29.87,29.74,18,4,19,0.00
2013-5-13,50.2,45.5,41.2,28.6,26.1,23.9,53,47,37,30.19,30.16,13,6,18,0.00
2013-5-14,76.3,65.7,47.9,53.4,46.1,32.5,72,50,39,29.99,29.71,20,6,21,0.00
2013-5-15,78.7,69.1,55.2,59.3,50.8,43.2,88,55,29,29.77,29.57,25,6,29,0.00
2013-5-16,65.0,53.4,45.2,49.0,45.5,42.2,91,76,53,29.86,29.76,8,1,9,0.00
2013-5-18,65.3,64.2,63.4,44.7,44.5,44.0,50,49,46,30.02,30.02,5,2,6,0.00
2013-5-19,84.7,71.1,53.5,64.1,56.0,44.6,81,60,46,30.02,29.84,14,3,15,0.00
2013-5-20,88.7,73.9,62.2,70.4,64.6,59.8,97,75,43,29.89,29.72,23,5,28,0.06
2013-5-21,81.5,73.7,67.2,67.5,63.9,58.9,97,73,47,29.78,29.69,22,6,22,0.00
2013-5-22,77.9,69.7,63.7,66.3,62.8,59.4,90,79,53,29.70,29.58,14,6,28,0.00
2013-5-23,62.8,59.5,55.8,60.1,57.2,53.7,98,92,86,29.76,29.65,15,5,15,0.00
2013-5-24,54.1,47.2,38.8,41.6,37.8,33.4,97,72,51,30.37,30.15,13,2,18,0.00
2013-5-25,60.2,44.6,33.1,42.5,36.0,32.2,97,76,41,30.41,30.33,13,2,13,0.00
2013-5-26,66.0,53.2,34.5,42.3,36.5,32.2,96,59,33,30.35,30.23,5,2,14,0.00
2013-5-27,60.4,50.7,39.1,49.6,42.9,33.0,96,77,43,30.26,30.02,7,4,17,0.29
2013-5-28,63.5,56.0,50.5,61.8,55.0,49.4,98,96,94,30.00,29.88,9,4,14,0.29
2013-5-29,80.0,73.6,66.0,69.1,65.8,61.7,96,78,56,29.96,29.78,21,5,27,0.11
2013-5-30,85.0,73.8,63.9,73.1,66.7,61.8,94,79,59,30.02,29.92,31,4,31,0.09
2013-5-31,79.3,72.6,68.2,70.7,67.1,65.5,95,83,67,29.96,29.77,23,7,24,0.04
2013-6-1,77.3,69.5,63.4,68.1,64.3,62.2,98,84,66,29.82,29.65,20,6,22,0.35
2013-6-2,67.2,64.9,62.5,63.8,60.7,58.2,92,87,76,29.73,29.61,19,7,24,0.01
2013-6-3,64.5,53.4,39.1,49.9,41.4,36.7,94,67,44,30.07,29.97,5,3,16,0.00
2013-6-4,69.2,57.9,43.8,48.5,44.5,39.9,96,65,42,30.19,30.08,5,2,15,0.00
2013-6-5,70.3,60.5,47.1,49.8,42.1,36.4,78,52,37,30.16,29.98,7,4,16,0.00
2013-6-6,63.0,58.8,55.7,53.1,48.0,43.6,71,67,62,30.00,29.86,11,5,13,0.00
2013-6-7,60.3,54.4,49.3,55.0,51.0,48.0,96,88,77,29.91,29.87,6,2,14,0.00
2013-6-8,73.2,65.4,54.2,55.8,53.1,51.0,91,66,49,30.06,29.91,8,2,8,0.00
2013-6-9,73.3,66.4,55.9,59.1,55.7,52.1,91,70,54,30.09,29.93,19,5,21,0.00
2013-6-10,70.5,63.2,59.9,66.4,60.6,52.5,98,92,61,29.93,29.73,13,4,15,1.28
2013-6-11,79.3,74.2,62.8,68.3,65.3,62.4,99,74,61,29.87,29.74,14,3,14,0.01
2013-6-12,73.7,68.2,58.5,68.8,64.6,57.7,98,88,80,29.90,29.61,13,2,14,0.04
2013-6-13,74.7,67.3,60.8,65.3,59.9,55.1,98,79,53,29.91,29.54,21,4,24,1.37
2013-6-14,73.0,63.9,54.5,60.1,54.6,48.4,95,74,44,30.06,29.91,15,3,17,0.00
2013-6-15,76.9,66.1,53.7,63.2,58.7,51.5,97,78,54,30.07,29.89,16,3,18,0.00
2013-6-16,79.6,69.8,62.6,67.1,61.4,53.3,96,77,43,29.89,29.74,17,6,19,0.51
2013-6-17,84.3,71.3,56.7,64.3,58.2,53.6,91,66,38,29.90,29.79,17,3,20,0.00
2013-6-18,68.4,61.5,50.0,58.3,50.7,41.2,96,70,41,30.07,29.86,19,6,20,0.09
2013-6-19,75.5,60.4,41.9,55.3,47.7,40.6,96,66,39,30.17,30.06,13,3,13,0.00
2013-6-20,83.0,68.3,53.7,58.1,53.8,49.4,90,63,39,30.19,30.11,13,3,15,0.00
2013-6-21,84.0,72.7,57.9,67.4,59.5,54.0,88,65,46,30.18,30.01,17,4,17,0.00
2013-6-22,85.3,76.1,70.1,73.0,66.9,58.8,87,74,63,30.06,29.94,15,4,19,0.00
2013-6-23,87.7,78.5,69.8,70.2,67.9,64.9,93,72,50,30.02,29.92,18,5,21,0.00
2013-6-24,85.9,76.3,67.9,72.2,68.1,64.6,92,77,56,30.02,29.87,18,5,18,0.00
2013-6-25,81.8,72.4,66.7,73.5,67.9,63.3,97,86,71,29.94,29.79,21,4,21,0.33
2013-6-26,82.3,73.2,63.2,72.2,67.6,62.3,98,83,68,29.85,29.71,18,3,20,0.00
2013-6-27,82.8,73.1,66.1,72.8,68.9,64.8,98,87,64,29.73,29.60,16,2,16,1.82
2013-6-28,76.8,68.6,63.6,66.1,63.7,60.6,99,85,66,29.61,29.49,15,3,19,0.02
2013-6-29,72.3,66.7,62.8,63.4,61.7,58.8,97,85,70,29.71,29.51,16,4,18,0.00
2013-6-30,76.6,68.5,59.7,62.6,58.7,44.3,93,72,51,29.93,29.71,19,4,21,0.00
2013-7-1,67.0,61.5,57.1,59.8,53.1,43.6,93,75,51,30.05,29.92,14,4,15,0.10
2013-7-2,73.5,64.7,56.9,64.1,59.3,53.5,91,83,70,30.06,30.01,13,3,14,0.00
2013-7-3,80.2,66.8,58.9,68.6,62.8,57.4,98,88,61,30.08,30.02,13,3,14,0.00
2013-7-4,78.8,73.6,65.3,69.7,62.4,58.5,98,69,54,30.10,30.03,14,4,14,0.00
2013-7-5,84.0,73.9,64.6,68.3,63.8,58.9,95,73,45,30.08,30.00,10,2,11,0.00
2013-7-6,82.7,73.9,66.2,71.3,68.4,64.9,98,84,61,30.07,29.95,13,2,14,0.32
2013-7-7,81.3,73.6,69.1,70.8,68.8,65.5,98,86,61,29.99,29.92,11,4,11,0.00
2013-7-8,77.3,70.2,68.6,73.2,67.6,65.9,95,91,86,30.01,29.97,13,4,18,0.17
2013-7-9,85.9,75.2,69.7,75.3,70.4,68.8,98,86,63,29.94,29.84,7,3,22,0.14
2013-7-10,84.9,77.3,67.3,74.0,69.9,58.4,97,79,57,29.89,29.73,7,5,21,0.00
2013-7-11,76.2,70.4,58.5,59.9,56.7,54.4,93,63,50,30.04,29.91,12,4,14,0.14
2013-7-12,80.5,67.0,53.0,63.6,58.2,52.0,98,76,44,30.14,30.04,14,2,14,0.00
2013-7-13,82.8,72.4,58.3,65.3,60.2,55.2,95,68,42,30.18,30.11,13,3,15,0.00
2013-7-14,88.3,76.7,61.7,73.7,67.7,60.5,97,75,53,30.22,30.17,11,2,14,0.00
2013-7-15,91.0,78.5,68.4,77.0,72.5,67.2,99,83,58,30.25,30.17,15,2,18,1.21
2013-7-16,90.4,80.5,73.5,79.4,75.2,73.0,100,85,62,30.27,30.19,11,2,12,0.07
2013-7-17,90.0,81.2,72.1,77.8,74.7,70.4,97,82,60,30.24,30.10,14,2,17,0.00
2013-7-18,90.6,81.9,71.5,78.3,73.5,70.0,96,77,58,30.12,29.91,17,4,18,0.00
2013-7-19,90.7,82.0,71.5,76.1,73.1,66.7,96,76,53,29.92,29.66,36,8,38,0.37
2013-7-20,83.5,74.7,66.1,71.9,65.6,57.9,98,76,44,29.89,29.68,13,3,38,0.07
2013-7-21,81.2,70.8,61.5,66.4,61.4,54.9,95,73,54,29.98,29.88,9,2,10,0.00
2013-7-22,81.3,73.0,66.1,69.2,65.8,63.0,94,79,59,29.92,29.72,12,2,13,0.01
2013-7-23,80.3,69.9,59.6,72.8,64.9,51.5,95,85,65,29.85,29.64,17,4,23,0.23
2013-7-24,70.3,61.1,52.1,55.7,51.8,47.7,93,73,53,30.04,29.85,14,3,15,0.00
2013-7-25,77.8,63.6,48.1,57.3,52.9,47.3,98,72,42,30.10,30.03,11,1,12,0.00
2013-7-26,77.0,67.8,57.8,60.9,57.6,54.3,89,71,52,30.09,29.91,15,4,16,0.00
2013-7-27,72.8,64.5,53.6,65.9,60.6,50.6,96,87,72,29.89,29.70,21,4,25,0.77
2013-7-28,63.8,56.5,50.6,57.1,52.3,48.7,94,86,70,29.97,29.80,17,5,19,0.19
2013-7-29,68.6,60.1,55.1,58.2,54.8,52.5,97,83,66,30.17,29.95,11,4,14,0.01
2013-7-30,79.0,64.8,49.2,61.6,56.4,48.7,98,77,45,30.22,30.10,8,1,9,0.00
2013-7-31,71.7,67.0,64.4,66.9,64.3,61.1,98,91,82,30.11,29.86,9,2,10,0.57
2013-8-1,75.7,66.3,61.9,64.2,61.6,56.1,97,86,52,29.90,29.84,17,4,19,0.15
2013-8-2,72.1,66.8,53.3,64.3,61.7,52.5,97,84,66,29.91,29.82,19,6,20,0.00
2013-8-3,75.3,66.8,55.4,63.9,58.0,51.6,99,75,47,30.03,29.88,12,2,14,0.00
2013-8-4,71.0,61.9,53.9,58.3,54.3,51.6,95,77,52,30.14,30.03,16,3,16,0.00
2013-8-5,70.5,63.6,54.6,59.1,54.4,50.0,91,73,53,30.10,29.94,14,3,15,0.00
2013-8-6,76.4,68.0,62.3,69.6,63.7,58.0,96,86,72,29.95,29.86,15,3,15,0.18
2013-8-7,82.3,71.5,64.1,73.0,67.3,62.1,98,87,69,29.88,29.77,25,5,28,0.12
2013-8-8,75.6,68.8,63.9,69.3,62.1,57.8,95,80,59,29.99,29.86,14,3,14,0.00
2013-8-9,78.3,68.0,55.8,62.2,58.4,54.4,97,74,48,29.98,29.91,14,2,18,0.00
2013-8-10,75.2,66.9,58.4,61.9,59.0,55.8,97,77,54,30.11,29.98,9,2,11,0.00
2013-8-11,76.6,67.6,57.0,63.2,59.3,55.1,96,76,52,30.10,30.01,12,2,14,0.00
2013-8-12,70.2,65.7,63.2,67.7,63.3,59.0,98,92,76,30.03,29.81,14,3,17,0.77
2013-8-13,65.2,59.8,52.8,63.8,52.5,45.7,99,78,54,30.04,29.82,17,4,19,0.01
2013-8-14,69.3,57.3,46.8,54.1,49.2,44.6,94,76,49,30.16,30.04,14,2,15,0.00
2013-8-15,72.5,59.9,46.1,56.9,51.3,45.4,98,76,49,30.17,30.07,12,2,13,0.00
2013-8-16,78.0,64.1,49.8,59.4,54.7,49.3,99,75,44,30.19,30.10,10,2,11,0.00
2013-8-17,78.3,65.1,50.8,61.7,55.2,48.4,98,74,37,30.25,30.16,11,2,13,0.00
2013-8-18,80.3,66.4,53.2,65.5,58.1,52.4,98,77,43,30.21,30.08,8,1,9,0.00
2013-8-19,80.5,67.9,54.3,64.0,57.9,49.9,98,74,41,30.10,30.01,13,2,14,0.00
2013-8-20,83.9,70.7,56.3,67.4,62.6,55.8,99,78,50,30.12,30.04,14,2,17,0.00
2013-8-21,83.8,73.7,63.4,71.4,66.9,62.2,98,81,62,30.10,29.95,19,4,19,0.00
2013-8-22,80.2,73.7,66.1,69.0,67.3,64.8,97,81,64,30.01,29.90,12,3,13,0.00
2013-8-23,79.0,68.2,55.0,66.4,57.3,46.4,98,72,37,30.18,30.00,12,2,12,0.00
2013-8-24,82.3,67.7,51.6,64.8,57.4,50.7,98,73,43,30.29,30.18,10,2,11,0.00
2013-8-25,84.5,72.3,57.0,66.9,62.0,55.6,98,72,47,30.27,30.11,17,4,20,0.00
2013-8-26,84.8,76.7,68.9,73.5,67.4,61.8,93,73,63,30.12,29.93,17,5,18,0.00
2013-8-27,83.2,75.7,69.9,76.7,72.5,68.7,97,90,79,29.95,29.78,20,3,25,0.74
2013-8-28,80.8,74.8,66.4,75.6,72.2,65.4,98,92,76,29.97,29.74,16,3,18,2.90
2013-8-29,85.6,74.1,63.9,73.6,68.1,63.3,99,83,58,30.05,29.96,9,2,9,0.01
2013-8-30,85.3,76.0,66.5,72.9,69.3,65.3,97,81,61,29.97,29.70,18,5,20,0.00
2013-8-31,77.2,72.2,65.0,72.8,67.8,63.7,97,87,70,29.81,29.70,12,3,13,0.00
2013-9-1,81.3,71.1,66.4,72.5,67.4,63.3,97,88,73,29.82,29.68,9,2,11,0.00
2013-9-2,73.1,68.2,63.2,70.3,66.3,60.2,96,94,91,29.79,29.69,12,3,14,0.00
2013-9-3,73.5,66.0,56.1,57.4,55.1,51.5,90,69,52,30.00,29.89,14,3,18,0.00
2013-9-4,78.6,66.6,54.8,63.7,58.6,52.6,95,77,52,30.06,29.98,17,5,19,0.00
2013-9-5,68.9,59.8,50.5,62.2,51.2,46.8,94,75,48,30.24,30.05,13,3,14,0.00
2013-9-6,75.0,59.9,45.0,55.5,49.7,44.2,98,72,42,30.27,30.05,10,2,11,0.00
2013-9-7,78.8,67.7,58.9,69.8,61.2,50.1,96,80,65,30.06,29.86,12,3,13,0.11
2013-9-8,71.6,66.8,57.5,66.8,59.4,50.7,95,78,56,30.06,29.90,16,4,18,0.00
2013-9-9,76.5,64.4,51.6,71.2,61.0,49.4,96,89,80,30.05,29.88,11,3,11,0.14
2013-9-10,90.9,79.8,68.9,74.3,69.9,65.0,96,74,44,29.97,29.85,23,6,23,0.00
2013-9-11,87.4,79.2,73.4,74.4,70.1,66.9,84,74,62,29.98,29.85,13,5,14,0.02
2013-9-12,67.8,66.4,65.4,67.2,64.9,62.5,98,95,89,29.91,29.86,11,3,11,0.00
2013-9-16,59.2,54.3,46.8,53.7,49.8,43.4,97,86,60,30.37,30.12,6,3,16,0.00
2013-9-17,66.1,51.0,35.6,52.3,44.5,34.9,98,80,55,30.41,30.23,5,2,17,0.01
2013-9-18,74.4,59.7,44.2,58.6,51.2,43.1,98,76,47,30.22,30.02,7,3,15,0.00
2013-9-19,78.1,68.0,59.0,69.5,63.3,57.9,97,86,72,30.02,29.88,7,4,15,0.00
2013-9-20,75.9,70.3,66.9,70.1,67.7,65.4,97,92,79,29.88,29.70,10,6,20,0.14
2013-9-21,66.3,61.0,54.8,64.5,55.4,46.3,97,83,57,29.84,29.65,6,4,18,0.05
2013-9-22,56.5,50.8,42.0,45.7,42.8,39.9,96,75,62,30.08,29.85,14,2,14,0.00
2013-9-23,61.1,47.6,36.9,46.7,42.3,36.0,98,84,56,30.20,30.08,9,1,9,0.00
2013-9-24,66.8,52.1,39.2,52.2,45.4,38.5,99,81,54,30.16,29.99,11,2,12,0.01
2013-9-25,50.5,49.3,48.1,48.8,47.9,47.0,96,95,94,29.99,29.97,0,0,2,0.00
2013-9-26,46.0,42.8,41.1,44.9,42.2,40.6,98,98,96,30.05,30.00,0,0,4,0.01
2013-9-27,74.7,65.7,43.3,56.9,54.4,42.8,99,69,51,30.22,30.14,12,2,14,0.00
2013-9-28,75.8,63.8,51.8,60.9,56.6,50.4,98,80,49,30.18,29.99,14,3,14,0.01
2013-9-29,61.6,59.9,57.5,60.0,57.0,53.6,98,90,78,30.00,29.92,10,3,11,0.12
2013-9-30,69.3,60.1,52.5,58.0,55.1,50.0,99,86,51,30.00,29.90,13,2,17,0.02
2013-10-1,71.8,60.3,48.5,64.0,57.4,47.7,99,91,73,29.99,29.91,20,5,23,0.00
2013-10-2,78.1,64.7,51.0,61.1,53.9,39.1,98,73,27,30.06,29.92,9,2,10,0.00
2013-10-3,77.7,64.7,49.9,68.3,60.1,48.8,98,86,71,30.04,29.89,17,3,18,0.00
2013-10-4,78.3,69.5,64.2,69.6,65.9,62.7,97,89,75,30.00,29.90,11,3,12,0.08
2013-10-5,72.2,67.4,63.5,69.0,65.6,62.7,99,94,88,30.01,29.82,11,2,13,0.26
2013-10-6,68.8,64.2,53.4,67.8,62.4,52.3,98,94,85,29.83,29.59,17,5,22,0.41
2013-10-7,57.8,50.4,43.0,53.0,46.6,40.7,98,87,65,30.11,29.65,21,6,23,0.01
2013-10-8,67.1,52.1,38.7,51.6,43.8,38.2,99,76,48,30.28,30.11,13,2,14,0.01
2013-10-9,70.0,54.5,40.5,55.5,46.6,39.7,98,77,49,30.31,30.20,14,2,14,0.00
2013-10-10,71.1,53.9,39.8,57.3,45.1,39.0,99,77,39,30.22,30.12,11,1,13,0.01
2013-10-11,71.7,54.1,37.3,52.2,44.5,36.5,99,74,39,30.15,30.06,8,1,11,0.00
2013-10-12,75.3,61.8,47.1,62.6,55.3,45.2,99,82,46,30.09,30.01,12,3,15,0.00
2013-10-13,65.2,57.4,42.5,59.3,47.5,38.8,97,73,40,30.33,30.06,14,2,15,0.00
2013-10-14,63.1,49.4,38.6,46.0,42.1,37.6,98,79,48,30.41,30.27,12,2,12,0.00
2013-10-15,62.1,51.5,37.3,60.2,49.6,36.5,99,93,82,30.28,29.81,16,4,20,0.11
2013-10-16,61.5,54.3,50.4,60.3,50.5,45.2,97,87,70,29.89,29.78,20,7,22,0.01
2013-10-17,51.4,49.3,45.2,48.9,47.3,43.4,96,93,89,29.88,29.74,17,5,17,0.23
2013-10-18,60.9,50.0,41.8,46.7,43.1,39.3,97,79,46,29.90,29.83,19,5,20,0.00
2013-10-19,47.7,43.7,40.1,42.3,40.5,37.1,96,89,77,29.89,29.73,19,5,21,0.24
2013-10-20,55.9,47.2,38.1,44.3,40.7,36.7,95,79,57,29.91,29.82,20,5,22,0.01
2013-10-21,55.0,49.5,40.2,48.5,43.0,34.6,90,78,67,29.84,29.78,21,8,26,0.00
2013-10-22,47.1,40.5,32.7,36.8,31.2,28.3,84,70,53,29.91,29.83,20,5,21,0.00
2013-10-23,45.5,37.3,28.9,35.5,31.1,24.2,97,80,47,29.94,29.82,15,3,17,0.00
2013-10-24,45.9,36.4,30.8,34.9,31.4,28.1,95,83,51,30.19,29.93,17,4,17,0.03
2013-10-25,45.2,37.3,30.8,35.7,31.0,28.7,96,79,54,30.33,30.10,18,6,19,0.00
2013-10-26,49.4,42.5,37.1,39.1,33.0,28.2,96,70,54,30.10,29.76,27,9,28,0.18
2013-10-27,51.3,40.3,30.1,36.9,33.1,28.8,97,77,52,30.07,29.98,17,3,17,0.00
2013-10-28,49.5,38.7,29.7,39.6,33.5,28.1,96,82,67,30.41,30.02,16,3,17,0.00
2013-10-29,48.4,41.8,38.2,37.3,34.1,31.4,82,74,61,30.45,30.24,11,3,13,0.00
2013-10-30,62.7,48.0,31.0,50.6,41.1,29.7,98,79,54,30.28,29.94,12,2,15,0.13
2013-10-31,61.1,58.5,51.7,60.2,57.5,49.1,98,96,91,29.97,29.13,30,8,30,1.32
2013-11-1,60.0,48.6,44.7,59.0,44.0,38.8,97,84,71,29.65,29.08,33,10,36,0.04
2013-11-2,45.1,42.2,33.5,44.1,40.2,31.9,97,93,85,30.10,29.64,15,3,17,0.27
2013-11-3,42.6,35.3,26.6,36.7,31.5,25.8,98,87,69,30.46,30.09,11,2,12,0.00
2013-11-4,47.9,40.8,33.5,36.1,31.7,26.8,89,72,46,30.49,30.31,20,5,20,0.00
2013-11-5,53.8,49.3,42.8,47.7,43.6,36.1,90,81,72,30.35,30.15,15,4,15,0.00
2013-11-6,54.9,51.0,41.4,53.3,46.9,38.4,98,86,67,30.16,29.75,23,9,27,0.25
2013-11-7,42.9,38.3,33.1,39.0,31.6,25.6,94,78,54,30.13,29.97,20,5,23,0.04
2013-11-8,43.0,34.6,28.2,31.0,28.3,24.6,95,79,52,30.29,30.12,14,3,14,0.00
2013-11-9,54.1,46.2,36.0,42.1,36.0,29.9,81,68,58,30.19,29.79,24,9,31,0.00
2013-11-10,46.9,41.6,34.4,37.4,31.5,28.7,84,67,54,30.27,29.89,25,6,26,0.00
2013-11-11,41.9,35.2,27.1,38.2,30.9,21.7,96,85,74,30.33,30.03,19,5,19,0.19
2013-11-12,31.8,26.7,22.0,22.4,19.1,16.2,88,73,57,30.56,30.33,17,4,20,0.00
2013-11-13,39.3,29.2,16.6,24.6,17.6,10.2,92,65,32,30.57,30.17,23,8,26,0.00
2013-11-14,51.2,40.3,31.8,28.8,22.4,17.8,59,49,38,30.18,29.98,22,10,25,0.00
2013-11-15,51.2,42.6,36.4,31.1,27.7,23.4,69,56,39,30.06,29.98,19,6,20,0.00
2013-11-16,55.9,46.4,36.6,52.9,41.8,30.5,92,84,69,30.09,29.77,23,7,26,0.00
2013-11-17,61.7,58.2,54.9,59.3,55.8,46.6,96,92,73,29.78,29.19,44,11,48,0.44
2013-11-18,45.8,39.4,33.6,41.9,31.6,24.2,86,73,68,30.11,29.44,19,12,42,0.00
2013-11-19,40.2,33.4,27.0,25.5,23.5,21.4,81,67,52,30.41,30.14,6,3,18,0.00
2013-11-20,44.7,39.3,27.6,32.4,27.2,21.1,91,63,39,30.45,30.25,20,5,22,0.00
2013-11-21,47.4,43.3,39.6,43.2,37.8,29.1,98,81,65,30.30,30.17,17,5,17,0.21
2013-11-22,44.1,37.9,26.6,43.8,36.0,23.8,99,93,78,30.37,30.13,17,3,23,0.07
2013-11-23,27.5,22.9,15.0,24.0,16.4,6.0,93,77,48,30.55,30.28,24,6,32,0.00
2013-11-24,23.7,17.7,12.6,15.1,10.9,8.5,86,75,57,30.63,30.44,16,5,17,0.00
2013-11-25,31.6,24.9,18.7,25.9,15.8,9.0,90,69,48,30.44,30.10,23,10,26,0.00
2013-11-26,32.7,30.1,27.3,28.2,26.9,23.1,93,88,83,30.13,29.95,15,5,17,0.00
2013-11-27,27.3,22.0,17.2,24.0,14.9,10.3,93,74,56,30.22,29.94,21,6,25,0.00
2013-11-28,27.1,21.1,14.4,20.6,15.9,10.5,90,80,63,30.45,30.22,12,2,13,0.00
2013-11-29,33.9,22.7,12.6,24.3,17.2,10.5,94,81,53,30.69,30.45,8,1,9,0.00
2013-11-30,44.4,34.1,25.8,29.5,25.9,21.9,86,72,55,30.57,30.11,15,5,16,0.00
2013-12-1,40.6,34.3,28.4,33.9,30.4,25.0,94,86,76,30.11,30.00,11,2,11,0.00
2013-12-2,37.2,31.4,24.3,30.5,25.9,20.7,94,81,56,30.01,29.90,10,1,10,0.00
2013-12-3,37.5,33.2,23.9,35.9,30.5,20.4,95,90,83,29.93,29.84,17,4,17,0.01
2013-12-4,56.7,45.9,37.5,54.1,44.0,35.9,97,93,89,29.90,29.60,18,5,18,0.03
2013-12-5,57.8,41.3,29.0,54.8,34.8,22.1,92,78,65,30.14,29.59,31,9,31,0.00
2013-12-6,29.1,24.3,19.0,22.8,17.4,11.6,78,74,71,30.43,30.12,17,4,17,0.00
2013-12-7,22.7,18.0,10.8,13.3,9.8,6.4,84,70,56,30.65,30.43,14,4,20,0.00
2013-12-8,28.0,17.7,9.3,26.1,13.3,6.1,93,83,68,30.63,30.01,18,4,19,0.00
2013-12-9,28.2,25.2,18.6,27.0,21.4,10.7,95,86,71,30.11,29.90,29,10,29,0.00
2013-12-10,20.6,17.0,9.6,17.1,9.8,0.6,88,73,46,30.21,29.97,26,8,30,0.00
2013-12-11,21.7,16.3,5.2,16.6,10.7,0.2,89,78,68,30.49,30.20,17,5,18,0.00
2013-12-12,19.7,11.5,0.5,14.4,5.2,-2.9,88,76,44,30.49,30.22,23,7,24,0.00
2013-12-13,27.2,23.0,19.6,20.5,18.0,14.4,85,81,74,30.31,30.17,15,4,19,0.00
2013-12-14,21.0,18.6,16.7,19.0,15.5,11.7,94,88,74,30.30,29.85,19,7,20,0.00
2013-12-15,23.5,18.2,13.7,22.0,14.9,9.2,94,87,70,30.06,29.84,24,6,27,0.00
2013-12-16,26.7,13.8,1.6,13.9,8.3,-0.9,92,79,55,30.22,30.04,9,2,11,0.00
2013-12-17,26.9,21.4,11.6,23.8,18.9,9.5,94,90,81,30.04,29.91,17,5,18,0.00
2013-12-18,28.5,25.6,21.1,24.6,21.1,15.1,94,83,67,30.13,29.91,19,7,20,0.00
2013-12-19,40.0,32.5,24.5,34.3,27.5,17.6,94,82,68,30.00,29.88,13,3,18,0.04
2013-12-20,36.9,34.1,32.8,36.4,33.4,31.8,98,97,94,29.92,29.73,9,2,10,0.43
2013-12-21,33.1,32.4,32.0,32.8,31.9,31.5,99,98,98,29.87,29.67,15,4,16,0.68
2013-12-22,34.9,32.5,29.3,34.7,32.1,28.6,99,98,97,29.97,29.56,18,4,19,0.30
2013-12-23,29.4,26.0,18.5,28.9,22.7,11.5,98,88,73,30.33,29.97,16,5,20,0.00
2013-12-24,18.4,12.2,2.6,13.1,7.8,0.2,93,82,68,30.57,30.31,15,4,16,0.00
2013-12-25,23.3,18.3,7.7,21.6,15.1,4.2,93,87,82,30.55,30.14,18,6,20,0.00
2013-12-26,25.9,24.3,22.4,24.7,20.6,15.9,95,86,74,30.30,30.06,19,6,21,0.00
2013-12-27,39.1,32.1,25.3,31.6,28.3,22.5,96,86,73,30.33,30.06,20,5,21,0.01
2013-12-28,48.9,40.4,33.1,35.9,32.8,29.4,87,74,58,30.11,29.89,18,8,21,0.00
2013-12-29,40.1,32.9,18.8,32.6,27.3,13.9,94,80,70,30.02,29.69,17,5,18,0.00
2013-12-30,18.8,16.8,13.9,13.9,9.0,4.3,82,71,64,30.28,30.02,16,4,18,0.00
2013-12-31,17.9,15.0,12.7,14.0,10.3,4.9,90,81,68,30.36,30.09,19,6,20,0.00
2014-1-1,14.4,11.6,9.5,12.0,8.1,3.7,91,86,76,30.43,30.27,12,4,14,0.00
2014-1-2,13.7,10.0,0.7,11.6,6.8,-4.4,91,86,74,30.34,30.13,25,9,25,0.00